Location: Astronomy Club of Akron Observatory
(40.9700°N, 81.5606°W)
Time: 15:34:27
(UTC-04:00)

ATLAS 2AS CENTAUR R/B - Visible Passes

Search period start: 29 March 2015 00:00
Search period end: 08 April 2015 00:00
Orbit: 915 x 1298 km, 63.7° (Epoch: 19 March)

Date Brightness Start Highest point End Pass type
(mag) Time Alt. Az. Time Alt. Az. Time Alt. Az.
29 Mar 5.4 21:43:29 10° WNW 21:47:31 14° WSW 21:50:53 10° SW visible
30 Mar 5.2 20:56:59 10° WNW 21:03:10 24° WSW 21:08:51 10° SSW visible
31 Mar 4.6 20:11:26 10° NW 20:18:44 38° WSW 20:25:36 10° S visible
02 Apr 5.5 20:34:29 10° WNW 20:39:35 18° WSW 20:44:07 10° SW visible
